OBJECT D, 63294

Orbit data source: Space-Track

You're viewing an Uncataloged Satellite

Recently launched and/or uncataloged satellites may have evolving metadata. Metadata may include but not limited to: Owner, Maufacturer, Bus, Motor, and Mission.

OBJECT D, 63294 is a satellite owned by Yunyao yuhang (CN) in SSO that was launched on Mon, 17 Mar 2025 UTC via a GUSHENXING 1 launch vehicle from the Jiuquan Satellite Launch Center, China (JSC). Unknown objects in Earth's orbit typically refer to objects detected orbiting the Earth but have not yet been identified or cataloged. These objects could be anything from previously untracked satellites, spent rocket stages, debris from satellite collisions, or even natural meteoroids temporarily captured by Earth's gravity.

Loading next visibility...
Identifier
63294, 2025-055D
Orbit
SSO
Last TLE update
9 hours ago
Origin
Flag of CNYYAO (CN / PRC)
Manufacturer
Changguang WJ
Mission
Operational Commercial Meteo Radio Occ.
Bus & Motor
YY-1, Unknown motor
Mass
~50 kg wet, ~50 kg dry
Launch date (UTC)
2025-03-17 (2 months ago)
Launch vehicle
GUSHENXING 1
Launch site
Jiuquan Satellite Launch Center, China (JSC)
Object type
Unknown
Shape & HBR
Box + 1 Pan, 5 m
Radar Cross Section
5.339 m², Medium (>0.1 m² and < 1m²)

Expand to show TLE details & history

TLE from 9 hours ago
0 OBJECT D
1 63294U 25055D   25128.92060801  .00011373  00000-0  68138-3 0  9999
2 63294  97.6060 263.9569 0014421 112.0109 248.2655 15.11067772  7905
Epoch: 2025-05-08T22:05Z
Definitive object data (Epoch: 2025-05-08T22:05:40.532Z)
Latitude
0.00007°
Longitude
65.55383°
Altitude
539.719 km
Speed
7.591 km/s
True Right ascension
17h 35m 49s
True Declination
0° 00' 00"
Sunlit
Object was in full shadow at TLE epoch
Visualization TLE readout
Latitude
18.48942°
Longitude
-111.54235°
Altitude
529.108 km
Speed
7.603 km/s
Apparent Right ascension
04h 33m 51s
Apparent Declination
-10° 04' 19"
Sunlit
Object is in daylight
Visualization observer readout
Local Sidereal Time
14:53:58
Azimuth
316.538° NNW
Elevation
-52.825°
Doppler factor
1
Orbital elements
Apogee altitude
539.891 km
Perigee altitude
519.967 km
Semi-major axis
6,908.066 km
Eccentricity
0.0014421
Inclination
97.606°
RAAN
263.9569°
Arg. of periapsis
112.0109°
True anomaly
248.1121°
Mean anomaly
248.2655°
Eccentric anomaly
248.18879°
Mean motion
3.78015 °/min
BSTAR
0.00068138
Orbital period
95.23 mins
Loading maneuver chart data...
Loading SW <> Apogee altitude chart data...
Loading historical data...
Loading historical data...
Loading historical data...
Loading historical data...
Loading historical data...
Loading historical data...
Loading historical data...

OBJECT D Visibility forecast

Observer location: undefined°, undefined°

Span
Click to sort rows by Start time (UTC) header in descending order
Start Az.
Max El. time (UTC)
Max El. Az.
Max El.
End time (UTC)
End Az.
6 mins2025-05-09 09:21:05.201Z192.24° SSW2025-05-09 09:24:05.201Z284.723° WNW34.955°2025-05-09 09:27:05.201Z334.701° NNW
4 mins2025-05-09 22:31:05.201Z323.698° NNW2025-05-09 22:32:05.201Z298.015° NW25.349°2025-05-09 22:35:05.201Z233.679° WSW
|